Regional Weather Roundup
Issued by NWS Jackson, KY

Home | Current Version | Previous Version | Text Only | Print | Product List | Glossary Off
Versions: 1 2 3 4 5 6 7 8 9 10 11 12 13 14 15 16 17 18 19 20 21 22 23 24 25 26 27

000
ASUS43 KJKL 220610
RWRJKL

EAST KENTUCKY HOURLY WEATHER ROUNDUP
NATIONAL WEATHER SERVICE JACKSON KY
200 AM EDT WED MAR 22 2017

NOTE: "FAIR" INDICATES FEW OR NO CLOUDS BELOW 12,000 FEET WITH
NO SIGNIFICANT WEATHER AND/OR OBSTRUCTIONS TO VISIBILITY.

* THESE REPORTS ARE NOT UNDER NWS QUALITY CONTROL AND MAY NOT
  REPORT WEATHER SUCH AS PRECIPITATION AND FOG.

KYZ079-080-083-085-087-088-110-112-115-119-120-220700
...EASTERN KENTUCKY...

CITY           SKY/WX    TMP DP  RH WIND       PRES   REMARKS
JACKSON        CLOUDY    49  38  65 N9G18     30.12R
6HR MIN TEMP:  48; 6HR MAX TEMP:  56;

LONDON         CLOUDY    50  39  66 N6        30.13R
6HR MIN TEMP:  49; 6HR MAX TEMP:  60;

SOMERSET*      MOCLDY    48  39  71 N6        30.16R
MONTICELLO*    MOCLDY    51  42  71 N16       30.17R
6HR MIN TEMP:  45; 6HR MAX TEMP:  60;

WILLIAMSBURG*  CLOUDY    50  39  66 N7        30.13R
MIDDLESBORO*   CLOUDY    50  44  80 CALM      30.10R
6HR MIN TEMP:  50; 6HR MAX TEMP:  67;

HARLAN APT*    CLOUDY    50  41  71 N3        30.10R
PIKE CO APT*     N/A     47  42  81 NW7       30.10R
BIG SANDY APT* CLOUDY    47  40  77 N5        30.11R
6HR MIN TEMP:  47; 6HR MAX TEMP:  53;

MOREHEAD APT*  CLOUDY    46  25  42 NW9G18    30.19R
ASHLAND*       CLOUDY    46  28  49 N10G21    30.15R
$$

KYZ035-036-041-042-044-050-067-078-099-220700
...CENTRAL KENTUCKY...

CITY           SKY/WX    TMP DP  RH WIND       PRES   REMARKS
MT STERLING*   CLOUDY    46  32  57 NE10G20   30.20R
FLEMING/MASON* CLOUDY    41  20  43 N12G21    30.22R
DANVILLE*      CLEAR     45  32  61 N15       30.21R
LEXINGTON      MOCLDY    45  32  60 N8        30.21R
6HR MIN TEMP:  45; 6HR MAX TEMP:  56;

FRANKFORT      CLEAR     46  25  43 N15G23    30.21R
6HR MIN TEMP:  46; 6HR MAX TEMP:  59;

LOUISVILLE     PTCLDY    47  28  47 N17       30.24R
6HR MIN TEMP:  47; 6HR MAX TEMP:  60;

LEBANON*         N/A     46  32  57 N13       30.21R
GLASGOW*       MOCLDY    52  33  47 NE7       30.18R
BOWLING GREEN  CLEAR     55  33  43 N9        30.18R
6HR MIN TEMP:  55; 6HR MAX TEMP:  63;

$$

KYZ091>093-OHZ055-061-077-WVZ005-015-034-035-042-220700
...SOUTHERN OHIO/WEST VIRGINIA...

CITY           SKY/WX    TMP DP  RH WIND       PRES   REMARKS
COVINGTON      PTCLDY    38  24  57 N18       30.25R WCI  28
COLUMBUS       PTCLDY    35  23  61 N22G29    30.23R WCI  23
DAYTON         CLEAR     32  22  66 N17       30.28R WCI  21
WILMINGTON     CLEAR     34  26  72 N18G30    30.25R WCI  23
HUNTINGTON     CLOUDY    49  31  49 NW12      30.13R
CHARLESTON     MOCLDY    49  35  58 N12G20    30.08R
PINEVILLE*     CLOUDY    38  35  90 MISG      30.12S
BECKLEY        CLOUDY    42  39  89 W6        30.06R
BLUEFIELD      CLOUDY    42  37  82 NW6       30.05F
LOGAN CO APT*    N/A     46  41  81 N5        30.09R
$$

VAZ002-007-008-TNZ017-027-036-066-071-220700
...SOUTHWEST VIRGINIA/EAST TENNESSEE...

CITY           SKY/WX    TMP DP  RH WIND       PRES   REMARKS
WISE*          CLOUDY    45  37  76 CALM      30.09S
JONESVILLE*      N/A     50  41  71 N3        30.11R
ABINGDON*      PTCLDY    51  37  60 NE3       30.06S
BRISTOL        CLOUDY    52  38  58 N10       30.06S
MORRISTOWN*    CLOUDY    57  45  62 NE6       30.05R
SEVIERVILLE*   CLOUDY    55  54  94 CALM      30.03R VSB 1/4
KNOXVILLE      MOCLDY    55  51  86 N8        30.04R
LAFOLLETTE*    PTCLDY    54  43  66 VRB5      30.11R
OAK RIDGE      PTCLDY    57  44  62 VRB3      30.09R
CROSSVILLE     CLOUDY    50  42  74 N5        30.11R
NASHVILLE      MOCLDY    55  47  74 N8        30.15R
$$

...KEY TO REMARKS...
VSB - VISIBILITY IN MILES
WCI - WIND CHILL INDEX
HX  - HEAT INDEX

$$




USA.gov is the U.S. government's official web portal to all federal, state and local government web resources and services.